This demonstration page uses our WeatherBlox Daily Observations layout. Learn more.

Left ArrowRight Arrow

Hourly Observations for March 1, 2015

Temp ( °F °C ) Dew Point ( °F °C ) Humidity (%) Winds ( mph kmh ) Pressure ( in mb ) Visibility ( mi km ) Precip ( " mm )
12:15 am 00:15 Clear 19 -7 10 -12 68 68 N N/A 30.74 1041 10 16 N/A
12:35 am 00:35 Clear 18 -8 10 -12 73 73 N N/A 30.74 1041 10 16 N/A
12:55 am 00:55 Clear 19 -7 12 -11 73 73 SSW 3 6 30.74 1041 10 16 N/A
1:15 am 01:15 Partly Cloudy 19 -7 12 -11 73 73 SSW 3 6 30.74 1041 10 16 N/A
1:35 am 01:35 Mostly Cloudy 19 -7 12 -11 73 73 SSW 5 7 30.74 1041 10 16 N/A
1:55 am 01:55 Cloudy 21 -6 12 -11 68 68 N N/A 30.74 1041 10 16 N/A
2:15 am 02:15 Cloudy 23 -5 14 -10 68 68 S 3 6 30.71 1040 10 16 N/A
2:35 am 02:35 Cloudy 23 -5 14 -10 68 68 N N/A 30.71 1040 10 16 N/A
2:55 am 02:55 Cloudy 23 -5 14 -10 68 68 N N/A 30.71 1040 10 16 N/A
3:15 am 03:15 Cloudy 25 -4 14 -10 63 63 N N/A 30.68 1039 10 16 N/A
3:35 am 03:35 Cloudy 23 -5 14 -10 68 68 N N/A 30.68 1039 10 16 N/A
3:55 am 03:55 Cloudy 25 -4 14 -10 63 63 SE 5 7 30.68 1039 10 16 N/A
4:15 am 04:15 Cloudy 23 -5 16 -9 74 74 ESE 3 6 30.68 1039 10 16 N/A
4:35 am 04:35 Cloudy 23 -5 18 -8 80 80 N N/A 30.65 1038 10 16 N/A
4:55 am 04:55 Cloudy 25 -4 18 -8 74 74 N N/A 30.65 1038 10 16 N/A
5:15 am 05:15 Cloudy 27 -3 18 -8 69 69 N N/A 30.65 1038 10 16 N/A
5:35 am 05:35 Cloudy 25 -4 18 -8 74 74 N N/A 30.68 1039 10 16 N/A
5:55 am 05:55 Cloudy 25 -4 18 -8 74 74 N N/A 30.68 1039 10 16 N/A
6:15 am 06:15 Cloudy 27 -3 16 -9 64 64 N N/A 30.65 1038 10 16 N/A
6:35 am 06:35 Cloudy 27 -3 18 -8 69 69 N N/A 30.62 1037 10 16 N/A
6:55 am 06:55 Cloudy 27 -3 18 -8 69 69 N N/A 30.62 1037 10 16 N/A
7:15 am 07:15 Cloudy 27 -3 18 -8 69 69 N N/A 30.62 1037 10 16 N/A
7:35 am 07:35 Cloudy 27 -3 18 -8 69 69 SSE 3 6 30.62 1037 10 16 N/A
7:55 am 07:55 Cloudy 27 -3 18 -8 69 69 S 3 6 30.62 1037 10 16 N/A
8:15 am 08:15 Cloudy 27 -3 18 -8 69 69 S 6 9 30.65 1038 10 16 N/A
8:35 am 08:35 Cloudy 27 -3 18 -8 69 69 S 3 6 30.65 1038 10 16 N/A
8:55 am 08:55 Cloudy with Light Snow 27 -3 21 -6 80 80 S 8 13 30.62 1037 2 2 N/A
9:15 am 09:15 Cloudy with Light Snow 27 -3 23 -5 86 86 S 9 15 30.62 1037 1 2 N/A
9:35 am 09:35 Cloudy with Light Snow 25 -4 23 -5 93 93 S 10 17 30.65 1038 2 2 N/A
9:55 am 09:55 Cloudy with Light Snow 25 -4 25 -4 100 100 S 8 13 30.65 1038 3 5 N/A
10:15 am 10:15 Cloudy with Light Snow 27 -3 25 -4 93 93 S 8 13 30.59 1036 7 11 N/A
10:35 am 10:35 Cloudy with Light Snow 27 -3 27 -3 100 100 SSW 6 9 30.59 1036 4 6 N/A
10:55 am 10:55 Cloudy with Light Wintry Mix 28 -2 27 -3 93 93 S 8 13 30.59 1036 4 6 N/A
11:15 am 11:15 Cloudy with Light Wintry Mix 28 -2 28 -2 100 100 S 12 19 30.56 1035 5 8 N/A
11:35 am 11:35 Cloudy with Light Wintry Mix 28 -2 28 -2 100 100 S 10 17 30.56 1035 3 5 N/A
11:55 am 11:55 Cloudy with Light Wintry Mix 28 -2 28 -2 100 100 S 10 17 30.56 1035 3 5 N/A
12:15 pm 12:15 Cloudy with Light Wintry Mix 30 -1 28 -2 93 93 S 9 15 30.53 1034 3 5 N/A
12:35 pm 12:35 Cloudy with Light Wintry Mix 30 -1 28 -2 93 93 S 10 17 30.53 1034 4 6 N/A
12:55 pm 12:55 Cloudy with Light Wintry Mix 30 -1 30 -1 100 100 S 9 15 30.53 1034 7 11 N/A
1:15 pm 13:15 Cloudy 30 -1 28 -2 93 93 S 9 15 30.50 1033 10 16 N/A
1:35 pm 13:35 Cloudy with Light Wintry Mix 30 -1 30 -1 100 100 S 8 13 30.48 1032 5 8 N/A
2:15 pm 14:15 Cloudy with Light Wintry Mix 30 -1 30 -1 100 100 SSW 10 17 30.45 1031 5 8 N/A
2:35 pm 14:35 Cloudy with Light Wintry Mix 30 -1 30 -1 100 100 S 8 13 30.45 1031 4 6 N/A
2:55 pm 14:55 Cloudy with Light Wintry Mix 32 undefined 30 -1 93 93 S 8 13 30.42 1030 5 8 N/A
3:15 pm 15:15 Cloudy with Light Wintry Mix 32 undefined 30 -1 93 93 S 9 15 30.42 1030 7 11 N/A
3:35 pm 15:35 Cloudy with Light Wintry Mix 32 undefined 30 -1 93 93 S 7 11 30.42 1030 3 5 N/A
3:55 pm 15:55 Cloudy with Light Wintry Mix 32 undefined 30 -1 93 93 S 9 15 30.39 1029 3 4 0.02 0.51
4:15 pm 16:15 Cloudy with Light Wintry Mix 32 undefined 30 -1 93 93 S 9 15 30.39 1029 3 5 0.01 0.25
4:35 pm 16:35 Cloudy with Light Wintry Mix 32 undefined 32 undefined 100 100 SSW 7 11 30.39 1029 3 5 0.01 0.25
4:55 pm 16:55 Cloudy with Light Wintry Mix 32 undefined 32 undefined 100 100 S 6 9 30.39 1029 3 5 0.02 0.51
5:15 pm 17:15 Cloudy with Light Wintry Mix 32 undefined 32 undefined 100 100 S 7 11 30.36 1028 3 5 0.01 0.25
5:35 pm 17:35 Cloudy with Light Wintry Mix 32 undefined 32 undefined 100 100 S 8 13 30.36 1028 5 8 0.01 0.25
5:55 pm 17:55 Cloudy with Light Wintry Mix 32 undefined 32 undefined 100 100 SSW 6 9 30.36 1028 5 8 0.01 0.25
6:15 pm 18:15 Cloudy with Light Wintry Mix 32 undefined 32 undefined 100 100 SSW 5 7 30.33 1027 7 11 N/A
6:35 pm 18:35 Cloudy with Light Wintry Mix 32 undefined 32 undefined 100 100 S 5 7 30.33 1027 7 11 N/A
6:55 pm 18:55 Mostly Cloudy 28 -2 9 -13 43 43 N N/A 30.74 1041 10 16 N/A
7:15 pm 19:15 Cloudy 32 undefined 32 undefined 100 100 SSW 5 7 30.33 1027 10 16 N/A
7:35 pm 19:35 Cloudy 32 undefined 32 undefined 100 100 S 3 6 30.30 1026 10 16 N/A
7:55 pm 19:55 Cloudy 32 undefined 32 undefined 100 100 S 5 7 30.30 1026 7 11 N/A
8:15 pm 20:15 Cloudy 32 undefined 32 undefined 100 100 S 5 7 30.30 1026 7 11 N/A
8:35 pm 20:35 Cloudy 32 undefined 32 undefined 100 100 SSW 3 6 30.30 1026 7 11 N/A
8:55 pm 20:55 Cloudy 32 undefined 32 undefined 100 100 N N/A 30.27 1025 7 11 N/A
9:15 pm 21:15 Cloudy 32 undefined 32 undefined 100 100 S 3 6 30.27 1025 7 11 N/A
9:35 pm 21:35 Cloudy with Mist and Fog 32 undefined 32 undefined 100 100 N N/A 30.27 1025 5 8 N/A
9:55 pm 21:55 Cloudy 32 undefined 32 undefined 100 100 N N/A 30.27 1025 7 11 N/A
10:15 pm 22:15 Cloudy 32 undefined 32 undefined 100 100 N N/A 30.27 1025 7 11 N/A
10:35 pm 22:35 Cloudy with Mist and Fog 32 undefined 32 undefined 100 100 N N/A 30.24 1024 5 8 N/A
10:55 pm 22:55 Cloudy with Mist and Fog 32 undefined 32 undefined 100 100 SSE 5 7 30.21 1023 5 8 N/A
11:15 pm 23:15 Mostly Cloudy with Mist and Fog 32 undefined 32 undefined 100 100 N N/A 30.21 1023 5 8 N/A
11:35 pm 23:35 Cloudy with Mist and Fog 32 undefined 32 undefined 100 100 N N/A 30.21 1023 5 8 N/A
11:55 pm 23:55 Cloudy with Mist and Fog 32 undefined 32 undefined 100 100 N N/A 30.21 1023 4 6 N/A

Powered by AerisWeather